Location: Catstown
(52.4386°N, 7.2633°W)
Time: 11:28:30
(UTC+00:00)

Cosmos 1833 Rocket - Pass Details

Date: 19 January 2021
Orbit: 833 x 839 km, 71.0° (Epoch: 24 February)

Event Time Altitude Azimuth Distance (km) Brightness Sun altitude
Rises 18:01:04 0° 326° (NNW) 3,393 6.0 -10.2°
Reaches altitude 10° 18:04:19 10° 345° (NNW) 2,456 5.1 -10.6°
Maximum altitude 18:08:11 19° 29° (NNE) 1,916 4.1 -11.2°
Enters shadow 18:10:36 15° 59° (ENE) 2,139 4.2 -11.6°
